#timestamp,LO_Frequency,Hit,StdDev 
1540702815.6,286047000.7,P
1540702835.5,286046999.3,N
1540702855.3,286046998.2,N
1540702875.1,286046999.6,N
1540702895.9,286046997.0,N
1540702915.7,286046999.6,N
1540702935.5,286046999.1,N
1540702955.4,286046996.9,N
1540702975.2,286046999.0,N
1540702995.1,286046997.2,N
1540702996.0,286046997.2,N
1540703015.8,286046998.9,N
1540703035.6,286046998.4,N
1540703055.5,286047000.5,N
1540703075.3,286047002.5,N
1540703095.1,286047004.0,N
1540703115.9,286047003.5,N
1540703135.7,286047004.2,N
1540703155.6,286047005.9,N
1540703175.4,286047004.1,N
1540703195.2,286047004.2,N
1540703215.1,286047003.7,N
1540703216.0,286047003.7,N
1540703235.8,286047003.0,N
1540703255.6,286047004.5,N
1540703275.5,286047005.2,N
1540703295.3,286047004.8,N
1540703315.2,286047005.1,N
1540703335.9,286047003.3,N
1540703355.7,286047005.9,N
1540703375.6,286047004.5,N
1540703395.4,286047006.4,N
1540703415.2,286047006.7,N
1540703435.1,286047006.4,N
1540703436.0,286047006.4,N
1540703455.8,286047008.9,N
1540703475.7,286047009.2,N
1540703495.5,286047006.9,N
1540703515.3,286047006.1,N
1540703535.2,286047007.8,N
1540703555.0,286047010.2,Y
1540703555.9,286047010.2,P
1540703575.7,286047007.1,N
1540703595.6,286047007.1,N
1540703615.4,286047007.4,Y
1540703635.3,286047000.8,P
1540703655.1,286046999.1,N
1540703656.0,286046999.1,N
1540703675.8,286046998.8,N
1540703695.7,286046999.2,N
1540703715.5,286046999.5,N
1540703735.3,286046999.3,N
1540703755.2,286046998.5,N
1540703775.0,286047001.1,N
1540703775.9,286047001.1,N
1540703795.8,286046999.3,N
1540703815.6,286047000.3,N
1540703835.4,286047002.5,N
1540703855.3,286047001.2,N
1540703875.1,286047001.5,N
1540703895.8,286047002.6,N
1540703915.7,286047001.7,N
1540703935.5,286047006.0,N
1540703955.4,286047004.5,N
1540703975.2,286047004.6,N
1540703995.0,286047004.6,N
1540703995.9,286047004.6,N
1540704015.8,286047007.1,N
1540704035.6,286047006.7,N
1540704055.4,286047008.8,Y
1540704075.3,286047005.0,P
1540704095.1,286047007.3,P
1540704115.9,286047004.6,N
1540704135.7,286047004.5,N
1540704155.5,286047005.8,Y
1540704175.4,286046998.3,P
1540704195.2,286047001.0,N
1540704215.0,286047000.2,N
1540704215.9,286047000.2,N
1540704235.8,286047001.0,N
1540704255.6,286047002.7,N
1540704275.5,286047000.2,N
1540704295.3,286047002.2,N
1540704315.1,286046999.8,N
1540704335.9,286047001.9,N
1540704355.7,286047002.8,N
1540704375.5,286047000.1,N
1540704395.4,286047002.3,N
1540704415.2,286047003.9,N
1540704435.1,286047004.1,N
1540704436.0,286047004.1,N
1540704455.8,286047003.8,N
1540704475.6,286047003.9,N
1540704495.5,286047002.8,N
1540704515.3,286047000.1,N
1540704535.1,286046999.9,N
1540704555.9,286047002.5,N
1540704575.7,286047002.1,N
1540704595.6,286047004.4,N
1540704615.4,286047002.1,N
1540704635.2,286047002.7,N
1540704655.1,286047000.4,N
1540704656.0,286047000.4,N
1540704675.8,286047000.9,N
1540704695.6,286047000.7,N
1540704715.5,286047000.7,N
1540704735.3,286046998.4,N
1540704755.2,286046998.2,N
1540704775.9,286046999.9,N
1540704795.7,286047000.9,N
1540704815.6,286047000.2,N
1540704835.4,286046999.8,N
1540704855.2,286047002.4,N
1540704875.1,286047004.4,N
1540704876.0,286047004.4,N
1540704895.8,286047005.6,Y
1540704915.7,286047006.0,P
1540704935.5,286047007.4,P
1540704955.3,286047005.3,N
1540704975.2,286047004.6,N
1540704995.0,286047007.4,Y
1540704995.9,286047007.4,P
1540705015.7,286047001.7,N
1540705035.6,286047003.6,N
1540705055.4,286047005.6,N
1540705075.3,286047005.8,Y
1540705095.1,286047002.7,P
1540705096.0,286047002.7,N
1540705115.8,286046999.9,N
1540705135.7,286047001.1,N
1540705155.5,286046999.5,N
1540705175.3,286047000.3,N
1540705195.2,286047000.2,N
1540705215.0,286047002.8,N
1540705215.9,286047002.8,N
1540705235.8,286047003.9,N
1540705255.6,286047002.6,N
1540705275.4,286047003.5,N
1540705295.3,286047003.3,N
1540705315.1,286047005.5,Y
1540705335.8,286047003.5,P
1540705355.7,286047005.1,P
1540705375.5,286047005.3,P
1540705395.4,286047004.7,Y
1540705415.2,286047002.6,P
1540705435.0,286047001.6,N
1540705435.9,286047001.6,N
1540705455.8,286047002.2,N
1540705475.6,286047004.0,Y
1540705495.5,286047000.9,P
1540705515.3,286047002.1,N
1540705535.1,286046999.8,N
1540705555.9,286047004.1,Y
1540705575.7,286047003.3,P
1540705595.5,286047003.0,N
1540705615.4,286047007.1,P
1540705635.2,286047005.5,N
1540705655.1,286047004.9,N
1540705656.0,286047004.9,N
1540705675.8,286047006.2,Y
1540705695.6,286047004.2,P
1540705715.5,286047001.3,P
1540705735.3,286047004.3,P
1540705755.1,286047006.0,Y
1540705775.9,286047000.7,P
1540705795.7,286047000.9,N
1540705815.6,286046999.9,N
1540705835.4,286047004.4,Y
1540705855.2,286047002.8,P
1540705875.1,286047000.1,N
1540705876.0,286047000.1,N
1540705895.8,286047000.9,N
1540705915.7,286047000.4,N
1540705935.5,286047002.6,N
1540705955.3,286047002.8,N
1540705975.2,286047004.2,Y
1540705995.0,286047004.3,P
1540705995.9,286047004.3,N
1540706015.7,286047003.5,N
1540706035.6,286047003.3,N
1540706055.4,286047005.6,Y
1540706075.3,286046999.8,P
1540706095.1,286046999.8,N
1540706096.0,286046999.8,N
1540706115.8,286047001.8,N
1540706135.7,286047003.5,N
1540706155.5,286047005.6,Y
1540706175.4,286047001.3,P
1540706195.2,286047004.2,P
1540706215.0,286047001.8,N
1540706215.9,286047001.8,N
1540706235.8,286047005.9,Y
1540706255.6,286047005.6,P
1540706275.5,286047003.9,N
1540706295.3,286047004.5,P
1540706315.1,286047005.1,Y
1540706335.9,286046999.7,P
1540706355.7,286047002.5,N
1540706375.5,286047000.1,N
1540706395.4,286046998.3,N
